www.pogodaiklimat.ru

Погода и климат >> Архив погоды >> Беларусь >> Гомель


АРХИВ ПОГОДЫ в Гомеле

Время (UTC), дата Ветер
(напр.,м/с)
 
Видим.   Явления Облачность Т
(С)
Тd
(С)
f
(%)
Тe
(С)
Тes
(С)
Комфортность P
(гПа)
Po
(гПа)
Тmin
(С)
Tmax
(С)
R
(мм)
R24
(мм)
S
(см)
21 10.06 штиль 0 24 км 4/0
[Ci fib]
+21.4 +16.5 74 +25 +25 комфорт 1020.7 1005.9
00 11.06 штиль 0 23 км 3/0
[Ci fib]
+19.4 +16.6 84 +21 +21 комфорт 1020.7 1005.8
03 11.06 штиль 0 23 км ясно +19.1 +16.5 85 +21 +22 комфорт 1021.2 1006.3
06 11.06 ЮВ 1 25 км ясно +26.0 +18.2 62 +31 +40 очень
душно
1021.0 1006.5 +18.5
09 11.06 ЮВ 3 24 км 4/4 1000 м
[Cu hum]
+29.7 +16.3 44 +33 +41 душно 1020.4 1006.1
12 11.06 В 3 35 км 8/6 1020 м
[Cu med, cong Ac trans Ci]
+31.8 +16.5 40 +35 +38 очень
душно
1019.0 1004.9
15 11.06 ЮВ 2 30 км 4/4 1000 м
[Cu med, cong Ac trans Ci]
+31.0 +14.7 37 +33 +36 душно 1018.1 1003.9
18 11.06 штиль 0 29 км 3/0
[Ac trans Ci fib]
+27.8 +15.4 47 +31 +31 душно 1018.7 1004.3 +31.9
21 11.06 штиль 0 22 км 3/0
[Ci fib]
+23.1 +15.9 64 +28 +28 душно 1018.9 1004.2
00 12.06 штиль 0 17 км ясно +20.2 +16.4 79 +23 +23 комфорт 1018.8 1004.0
03 12.06 штиль 0 23 км ясно +19.9 +17.0 83 +22 +23 комфорт 1018.8 1004.0
06 12.06 Ю 1 21 км ясно +26.8 +17.3 56 +31 +40 душно 1017.9 1003.5 +19.3
09 12.06 штиль 0 35 км 3/3 1000 м
[Cu hum]
+31.0 +16.4 41 +34 +50 душно 1017.3 1003.1
12 12.06 С 2 26 км 4/4 1000 м
[Cu hum]
+32.5 +14.9 35 +35 +43 душно 1015.8 1001.7
15 12.06 С 1 30 км 6/4 1000 м
[Cu hum Ac trans]
+32.2 +15.6 37 +35 +37 очень
душно
1014.9 1000.8
18 12.06 штиль 0 26 км 4/0
[Ac trans Ci fib]
+28.2 +15.8 47 +31 +31 душно 1015.4 1001.1 +33.4
21 12.06 штиль 0 18 км 3/0
[Ci fib]
+23.4 +16.7 66 +28 +28 душно 1016.8 1002.2
00 13.06 штиль 0 20 км 3/0
[Ci fib]
+20.9 +15.8 73 +24 +24 комфорт 1017.0 1002.2
03 13.06 В 1 25 км 8/0
[Ac trans Ci]
+20.8 +14.8 69 +25 +25 комфорт 1018.2 1003.4
06 13.06 В 1 28 км 8/0
[Ac trans Ci]
+25.1 +17.3 62 +29 +35 душно 1018.4 1003.9 +19.7
09 13.06 В 1 30 км 8/0
[Ac trans Ci]
+30.7 +14.8 38 +33 +46 душно 1018.7 1004.5
12 13.06 В 2 35 км 9/5 1000 м
[Cu med, cong Ac trans Ci]
+31.5 +16.4 40 +34 +39 душно 1018.3 1004.1
15 13.06 В 2 30 км 9/3 1000 м
[Cu med, cong Ac trans Ci]
+30.3 +17.9 47 +35 +36 очень
душно
1018.0 1003.8
18 13.06 В 1 30 км 8/3 1000 м
[Sc diur, vesp Ac trans Ci]
+27.0 +18.4 59 +32 +32 очень
душно
1018.8 1004.4 +32.4
21 13.06 В 1 27 км 8/0
[Ci]
+22.9 +18.2 75 +29 +29 очень
душно
1020.5 1005.8
00 14.06 В 1 27 км 6/0
[Ci]
+20.4 +17.2 82 +25 +25 комфорт 1020.5 1005.7
03 14.06 В 1 25 км 4/0
[Ci fib]
+18.8 +16.4 86 +21 +22 комфорт 1020.7 1005.8
06 14.06 ЮВ 2 27 км 6/0
[Ci fib]
+23.5 +16.8 66 +27 +34 душно 1020.4 1005.7 +18.5
09 14.06 Ю 3 30 км 8/3 1000 м
[Cu hum Ci]
+29.1 +18.1 52 +34 +42 очень
душно
1019.1 1004.8
12 14.06 ЮЗ 1 35 км 9/5 1000 м
[Cu med, cong Ci]
+31.5 +17.9 44 +36 +43 очень
душно
1017.7 1003.6
15 14.06 СЗ 2 30 км 10/4 1000 м
[Cb calv Cs]
+28.4 +18.2 54 +33 +35 очень
душно
1016.9 1002.6
18 14.06 ЮЗ 1 28 км 9/1 1000 м
[Sc diur, vesp Ci]
+26.5 +16.3 53 +30 +30 душно 1016.4 1002.0 +32.3
21 14.06 З 1 24 км 9/0
[Ac trans Ci]
+22.7 +18.0 75 +28 +28 душно 1016.7 1002.1
00 15.06 СЗ 3 20 км 6/0
[Ci fib]
+22.0 +18.0 78 +27 +27 душно 1016.2 1001.5
03 15.06 СЗ 2 18 км 3/0
[Ci fib]
+19.7 +16.9 84 +23 +23 комфорт 1016.4 1001.6
06 15.06 СЗ 2 25 км 8/0
[Cc]
+24.5 +18.5 69 +29 +36 душно 1016.4 1001.9 +19.2
09 15.06 СЗ 3
{10}
35 км 4/4 1000 м
[Cu hum]
+28.5 +15.6 46 +32 +40 душно 1015.9 1001.6
12 15.06 СЗ 3
{10}
28 км 3/3 1000 м
[Cu hum]
+29.9 +13.2 36 +31 +39 жарко 1014.6 1000.4
15 15.06 З 4
{10}
35 км 1/1 1000 м
[Cu hum]
+29.6 +12.1 34 +30 +33 жарко 1013.9 999.7
18 15.06 С 2 30 км 3/0
[Ci fib]
+26.2 +10.4 37 +27 +27 жарко 1014.2 999.8 +30.6
21 15.06 С 1 20 км 3/0
[Ci fib]
+22.8 +13.6 56 +26 +26 жарко 1014.8 1000.2
00 16.06 С 1 20 км 3/0
[Ci fib]
+19.7 +13.3 67 +23 +23 комфорт 1015.5 1000.7
03 16.06 С 1 20 км 8/0
[Ci]
+18.2 +13.5 74 +20 +20 тепло 1015.2 1000.3
06 16.06 С 1 35 км 9/0
[Ci]
+22.0 +13.7 59 +25 +33 комфорт 1015.7 1001.0 +17.8
09 16.06 С 3 35 км 9/0
[Ci]
+25.2 +8.9 36 +26 +37 жарко 1015.3 1000.8
12 16.06 С 3 35 км 9/0
[Ci]
+26.7 +8.8 32 +27 +36 жарко 1014.9 1000.5
15 16.06 В 1 35 км 6/0
[Ci]
+27.7 +10.4 34 +28 +33 жарко 1014.1 999.8
18 16.06 С 1 35 км 6/0
[Ac trans Ci]
+24.2 +11.0 43 +25 +25 комфорт 1014.4 999.9 +28.3
21 16.06 В 1 30 км 9/0
[Ac trans Ci]
+22.0 +11.9 53 +24 +24 комфорт 1015.0 1000.3
00 17.06 штиль 0 20 км 9/0
[Ac trans Ci]
+19.9 +11.4 58 +21 +21 комфорт 1015.3 1000.5
03 17.06 штиль 0 20 км 8/4 600 м
[Cb calv Ac trans Ci]
+19.2 +12.2 64 +20 +21 тепло 1015.3 1000.5
06 17.06 Ю 1 25 км {ливн. осадки} 8/0
[Ac trans Ci]
+22.3 +13.5 57 +25 +31 комфорт 1015.8 1001.1 +19.2 0.0
09 17.06 ЮВ 2 30 км 9/0
[Ac und]
+27.1 +14.2 45 +29 +35 жарко 1015.1 1000.7
12 17.06 СЗ 3 30 км 9/5 1000 м
[Cu med, cong Ac trans Ci fib]
+29.6 +15.7 43 +32 +36 душно 1014.1 999.9
15 17.06 З 3 30 км 9/6 1170 м
[Cu med, cong Ac trans Ci]
+30.3 +16.1 42 +33 +34 душно 1013.3 999.1
18 17.06 СЗ 3 28 км 6/0
[Ci]
+27.2 +15.6 49 +30 +30 душно 1013.7 999.4 +30.8

 

Местоположение метеостанции Гомель (Гомельская область, Беларусь): широта 52.40 долгота 30.96 высота над уровнем моря 126 м.

В архиве по умолчанию представлена погода в Гомеле за последнюю неделю. Архивные данные за месяц целиком и за предыдущие месяцы, начиная с января 2011 года, Вы можете получить, выбрав интересующий диапазон дат из раскрывающегося списка и нажав кнопку "Ввод!".


*Определитесь, кто Вы:
робот инопланетянин человек

Внимание! Время в таблицах - всемирное. Для получения местного времени необходимо прибавить поправку, которая равна 3 ч.

Смотрите также архив погоды в соседних городах и на ближайших метеорологических станциях:

Погода в Василевичах (Гомельская область, Беларусь) (78 км)
Погода в Красной Горе (Брянская область, Россия) (81 км)
Погода в Брагине (Гомельская область, Беларусь) (83 км)
Погода в Жлобине (Гомельская область, Беларусь) (84 км)
Погода в Щорсе (Черниговская область, Украина) (96 км)
Погода в Чернигове (Черниговская область, Украина) (105 км)
Погода в Семеновке (Черниговская область, Украина) (113 км)
Погода в Славгороде (Могилевская область, Беларусь) (117 км)
Погода в Покошичах (Черниговская область, Украина) (123 км)
Погода в Унече (Брянская область, Россия) (125 км)

Пояснения к столбцам:

Ветер - указаны скорость ветра в м/с - средняя за 10 мин, порывы в срок и между сроками (в фигурных скобках) и направление, откуда дует ветер: С - северный, СВ - северо-восточный, В - восточный, ЮВ - юго-восточный, Ю - южный, ЮЗ - юго-западный, З - западный, СЗ - северо-западный.
Видимость - горизонтальная дальность видимости в метрах или километрах. При видимости от 1 до 10 км при отсутствии осадков обычно наблюдается дымка, при ухудшении видимости до 1 км и менее - туман. В сухую погоду видимость может ухудшаться дымом, пылью или мглою.
Явления - указаны атмосферные явления, наблюдавшиеся в срок или в последний час перед сроком; фигурными скобками обозначены явления, наблюдавшиеся между сроками (за 1-3 часа до срока); квадратными скобками обозначены град или гололедные отложения с указанием их диаметра в мм.
Облачность - указаны через наклонную черту общая и нижняя облачность в баллах и высота нижней границы облаков в метрах; квадратными скобками обозначены формы облаков: Ci - перистые, Cs - перисто-слоистые, Cc - перисто-кучевые, Ac - высококучевые, As - высокослоистые, Sc - слоисто-кучевые, Ns - слоисто-дождевые, Cu - кучевые, Cb - кучево-дождевые. Подробнее классификацию облаков см. в Атласе облаков (PDF).
T - Температура воздуха - температура, измеренная на высоте 2 м над землей.
Td - Температура точки росы - температура, при понижении до которой содержащийся в воздухе водяной пар достигнет насыщения.
f - Относительная влажность воздуха - влажноcть воздуха, измеренная на высоте 2 м над землей.
Te - Эффективная температура - температура, которую ощущает одетый по сезону человек в тени. Характеристика душности погоды. При расчете учитывается влияние влажности воздуха и скорости ветра на теплоощущения человека.
Tes - Эффективная температура на солнце - температура, которую ощущает человек, с поправкой на солнечный нагрев. Характеристика знойности погоды. Зависит от высоты солнца над горизонтом, облачности и скорости ветра. Ночью, в пасмурную погоду, а также при ветре 12 м/с и более поправка равна нулю.
P - Атмосферное давление - приведенное к уровню моря атмосферное давление.
Po - Атмосферное давление - измеренное на уровне метеостанции атмосферное давление.
Tmin - Минимальная температура - минимум температуры воздуха на высоте 2 м над землей.
Tmax - Максимальная температура - максимум температуры воздуха на высоте 2 м над землей.
R - Количество осадков - Количество выпавших осадков за период времени, мм. При наведении курсора мыши на число - период времени, за который выпало указанное количество осадков.
R24 - Количество осадков - Количество выпавших осадков за 24 часа, мм.
S - Снежный покров - Высота снежного покрова, см. При наведении курсора мыши на число - состояние снежного покрова и степень покрытия местности в баллах.